COSMOS 2539

Last updated on Thu Oct 30 2025 00:02:51 GMT+0000 (Coordinated Universal Time)

1 44457U 19048A 25301.68855043 .00000091 00000+0 00000+0 0 9994 2 44457 0.0261 121.6951 0000551 251.0613 284.4214 1.00270249 22902
UTC large
Height (km)
Speed (km/s)
/
Latitude / Longitude
Inclination (degrees)
Orbital Period (minutes)
Azimuth
Elevation
Range (km)
Doppler Factor

Next 0 passes for location: London (51.5072 / 0.1276)

Sorry there are no passes over London.